STARLINK X

Last updated on Sun Jun 09 2024 00:02:05 GMT+0000 (Coordinated Universal Time)

1 59943U 24106X 24160.58335648 -.01077028 34867-3 -30060-2 0 9997 2 59943 43.0017 19.7815 0001635 264.4634 70.8988 15.92771873 2352

Satellite not in orbit